Notices

What's New in latest Release from April 7th, 2021:

- Updated Glossary, including Speed of Maximum Gust, and Total Hourly Precipitation

- Updated national and regional climate services offices contacts and prices information

- Addition of station inventory lists for 1981-2010, 1971-2000, and 1961-1990 Normals.

If you haven't already, please take our survey and provide feedback about our website: https://eccc.sondage-survey.ca/f/LanguageSelection.aspx?s=442ca660-fcf1-47c0-95a9-59707d6fd709

Hourly Data Report for March 16, 2021

MIRAMICHI RCS
NEW BRUNSWICK
Current Station Operator: ECCC - MSC

47°00'34.000" N
65°27'54.000" W
33.00 m
8100989
71744
ACQ

Download Data

Hourly Data (March 2021)
Hourly Data Report for March 16, 2021
TIME
LST
Temp Definition
°C
Dew Point Definition
°C
Rel Hum Definition
%
Precip. Amount Definition
mm

Wind Dir Definition
10's deg

Wind Spd Definition
km/h
Visibility Definition
km
Stn Press Definition
kPa
Hmdx Definition


Wind Chill Definition


Weather Definition


00:00 -16.4 -22.2 61 LegendMM 28 9   101.31   -22 LegendNANA
01:00 -14.4 -21.5 55 LegendMM 29 11   101.31   -21 LegendNANA
02:00 -13.9 -21.5 52 LegendMM 30 15   101.35   -22 LegendNANA
03:00 -14.4 -21.6 54 LegendMM 30 13   101.37   -22 LegendNANA
04:00 -14.8 -21.8 55 LegendMM 30 11   101.41   -21 LegendNANA
05:00 -15.1 -21.7 57 LegendMM 30 12   101.46   -22 LegendNANA
06:00 -15.5 -21.7 59 LegendMM 30 16   101.52   -24 LegendNANA
07:00 -16.0 -22.1 60 LegendMM 30 9   101.57   -22 LegendNANA
08:00 -14.9 -22.0 55 LegendMM 30 13   101.61   -22 LegendNANA
09:00 -13.7 -22.0 49 LegendMM 31 17   101.62   -22 LegendNANA
10:00 -12.1 -22.0 44 LegendMM 32 15   101.60   -19 LegendNANA
11:00 -10.4 -22.5 37 LegendMM 32 14   101.56   -17 LegendNANA
12:00 -8.6 -22.7 31 LegendMM 32 13   101.48   -15 LegendNANA
13:00 -7.5 -23.7 26 LegendMM 34 13   101.45   -13 LegendNANA
14:00 -6.3 -22.3 27 LegendMM 32 15   101.40   -12 LegendNANA
15:00 -5.8 -22.1 26 LegendMM 30 18   101.40   -12 LegendNANA
16:00 -5.3 -22.5 24 LegendMM 30 16   101.41   -11 LegendNANA
17:00 -4.8 -23.0 23 LegendMM 33 10   101.40   -9 LegendNANA
18:00 -5.5 -23.2 23 LegendMM 33 8   101.43   -9 LegendNANA
19:00 -7.9 -21.0 34 LegendMM 0 1   101.46   -8 LegendNANA
20:00 -12.3 -20.7 50 LegendMM 9 2   101.50   -14 LegendNANA
21:00 -13.0 -20.6 53 LegendMM   0   101.55     LegendNANA
22:00 -13.8 -20.5 57 LegendMM 24 5   101.56   -17 LegendNANA
23:00 -15.0 -20.6 62 LegendMM 27 7   101.54   -20 LegendNANA

Notes on Data Quality.

Legend

  • E = Estimated
  • M = Missing
  • NA = Not Available*
  • [empty] = Indicates an unobserved value
Date modified: